Location: Castiglione Fibocchi
(43.5333°N, 11.7667°E)
Time: 13:27:44
(UTC+00:00)

Meteor 2-14 Rocket - Pass Details

Date: 15 August 2020
Orbit: 938 x 956 km, 82.5° (Epoch: 25 September)

Event Time Altitude Azimuth Distance (km) Brightness Sun altitude
Rises 01:41:47 0° 350° (N) 3,609 8.1 -23.7°
Reaches altitude 10° 01:44:17 10° 349° (NNW) 2,661 7.3 -23.5°
Maximum altitude 01:50:21 77° 264° (W) 967 4.3 -22.8°
Enters shadow 01:52:42 39° 186° (S) 1,368 4.9 -22.5°
